| time (UTC) | temp C | wind direction | speed KPH | gust KPH | rain 1hr cm | rain 24hr cm | rain mn cm | humidity % | barometer mb |
| 20260905095916 | 35 | 315 | 0.0 | 0.0 | 0.00 | 0.00 | 0.00 | 39 | 943.0 |
| 20260905095507 | 35 | 270 | 0.0 | 1.6 | 0.00 | 0.00 | 0.00 | 39 | 943.0 |
| 20260905094916 | 35 | 270 | 0.0 | 3.2 | 0.00 | 0.00 | 0.00 | 39 | 943.0 |
| 20260905094416 | 35 | 292 | 0.0 | 3.2 | 0.00 | 0.00 | 0.00 | 39 | 943.0 |
| 20260905093916 | 35 | 292 | 3.2 | 3.2 | 0.00 | 0.00 | 0.00 | 40 | 943.0 |
| 20260905093415 | 35 | 248 | 1.6 | 3.2 | 0.00 | 0.00 | 0.00 | 41 | 943.0 |
| 20260905093018 | 34 | 270 | 0.0 | 3.2 | 0.00 | 0.00 | 0.00 | 41 | 942.0 |
| 20260905092417 | 34 | 270 | 0.0 | 3.2 | 0.00 | 0.00 | 0.00 | 41 | 943.0 |
| 20260905091925 | 33 | 270 | 0.0 | 1.6 | 0.00 | 0.00 | 0.00 | 42 | 943.0 |
| 20260905091416 | 33 | 292 | 0.0 | 4.8 | 0.00 | 0.00 | 0.00 | 43 | 943.0 |
| 20260905090917 | 33 | 270 | 0.0 | 4.8 | 0.00 | 0.00 | 0.00 | 44 | 943.0 |
| 20260905090417 | 32 | 292 | 0.0 | 4.8 | 0.00 | 0.00 | 0.00 | 45 | 943.0 |
| 20260905085917 | 31 | 248 | 4.8 | 4.8 | 0.00 | 0.00 | 0.00 | 46 | 943.0 |
| 20260905085437 | 31 | 315 | 0.0 | 3.2 | 0.00 | 0.00 | 0.00 | 47 | 943.0 |
| 20260905084915 | 30 | 270 | 0.0 | 3.2 | 0.00 | 0.00 | 0.00 | 48 | 943.0 |
| 20260905084422 | 29 | 270 | 0.0 | 3.2 | 0.00 | 0.00 | 0.00 | 50 | 943.0 |
| 20260905083916 | 28 | 270 | 0.0 | 1.6 | 0.00 | 0.00 | 0.00 | 50 | 943.0 |
| 20260905083417 | 28 | 270 | 1.6 | 6.4 | 0.00 | 0.00 | 0.00 | 50 | 943.0 |
| 20260905082915 | 27 | 270 | 0.0 | 6.4 | 0.00 | 0.00 | 0.00 | 50 | 943.0 |
| 20260905082417 | 27 | 270 | 3.2 | 6.4 | 0.00 | 0.00 | 0.00 | 50 | 943.0 |
| 20260905081934 | 28 | 270 | 3.2 | 3.2 | 0.00 | 0.00 | 0.00 | 51 | 943.0 |
| 20260905081417 | 28 | 248 | 0.0 | 0.0 | 0.00 | 0.00 | 0.00 | 51 | 943.0 |
| 20260905080928 | 28 | 270 | 0.0 | 3.2 | 0.00 | 0.00 | 0.00 | 52 | 943.0 |
| 20260905080416 | 28 | 270 | 0.0 | 3.2 | 0.00 | 0.00 | 0.00 | 53 | 943.0 |
| 20260905075916 | 27 | 270 | 0.0 | 3.2 | 0.00 | 0.00 | 0.00 | 53 | 943.0 |
| 20260905075417 | 27 | 270 | 3.2 | 4.8 | 0.00 | 0.00 | 0.00 | 54 | 943.0 |
| 20260905074916 | 26 | 270 | 1.6 | 4.8 | 0.00 | 0.00 | 0.00 | 55 | 943.0 |
| 20260905074415 | 25 | 248 | 4.8 | 6.4 | 0.00 | 0.00 | 0.00 | 57 | 943.0 |
| 20260905073916 | 24 | 270 | 0.0 | 6.4 | 0.00 | 0.00 | 0.00 | 58 | 943.0 |
| 20260905073428 | 24 | 270 | 0.0 | 6.4 | 0.00 | 0.00 | 0.00 | 57 | 944.0 |
| 20260905072916 | 24 | 270 | 0.0 | 0.0 | 0.00 | 0.00 | 0.00 | 57 | 944.0 |
| 20260905072423 | 24 | 248 | 0.0 | 0.0 | 0.00 | 0.00 | 0.00 | 57 | 943.0 |
| 20260905071916 | 24 | 292 | 0.0 | 0.0 | 0.00 | 0.00 | 0.00 | 58 | 944.0 |
| 20260905071416 | 24 | 292 | 0.0 | 0.0 | 0.00 | 0.00 | 0.00 | 58 | 944.0 |
| 20260905070942 | 24 | 292 | 0.0 | 3.2 | 0.00 | 0.00 | 0.00 | 57 | 944.0 |
| 20260905070417 | 24 | 292 | 0.0 | 3.2 | 0.00 | 0.00 | 0.00 | 58 | 944.0 |
| 20260905065936 | 24 | 270 | 0.0 | 3.2 | 0.00 | 0.00 | 0.00 | 58 | 944.0 |
| 20260905065417 | 24 | 292 | 0.0 | 3.2 | 0.00 | 24.97 | 0.00 | 58 | 944.0 |
| 20260905064919 | 24 | 225 | 3.2 | 3.2 | 0.00 | 0.00 | 0.00 | 59 | 944.0 |
| 20260905064416 | 24 | 248 | 0.0 | 3.2 | 0.00 | 0.00 | 0.00 | 59 | 944.0 |
| 20260905063916 | 24 | 0 | 0.0 | 3.2 | 0.00 | 0.00 | 0.00 | 60 | 944.0 |
| 20260905063416 | 24 | 292 | 0.0 | 3.2 | 0.00 | 0.00 | 0.00 | 61 | 944.0 |
| 20260905062916 | 24 | 292 | 3.2 | 3.2 | 0.00 | 0.00 | 0.00 | 62 | 944.0 |
| 20260905062416 | 23 | 270 | 0.0 | 4.8 | 0.00 | 0.00 | 0.00 | 62 | 944.0 |
| 20260905061917 | 23 | 270 | 0.0 | 6.4 | 0.00 | 0.00 | 0.00 | 63 | 944.0 |
| 20260905061443 | 23 | 270 | 0.0 | 6.4 | 0.00 | 0.00 | 0.00 | 64 | 944.0 |
| 20260905060916 | 23 | 270 | 4.8 | 6.4 | 0.00 | 0.00 | 0.00 | 64 | 944.0 |
| 20260905060439 | 22 | 292 | 0.0 | 1.6 | 0.00 | 0.00 | 0.00 | 65 | 944.0 |
| 20260905055917 | 22 | 270 | 0.0 | 0.0 | 0.00 | 0.00 | 0.00 | 66 | 944.0 |
| 20260905055421 | 21 | 315 | 0.0 | 3.2 | 0.00 | 0.00 | 0.00 | 67 | 944.0 |
| 20260905054917 | 21 | 270 | 0.0 | 3.2 | 0.00 | 0.00 | 0.00 | 67 | 944.0 |
| 20260905054416 | 21 | 270 | 0.0 | 3.2 | 0.00 | 0.00 | 0.00 | 68 | 944.0 |
| 20260905053917 | 21 | 292 | 0.0 | 3.2 | 0.00 | 0.00 | 0.00 | 68 | 944.0 |
| 20260905053416 | 20 | 248 | 0.0 | 3.2 | 0.00 | 0.00 | 0.00 | 69 | 944.0 |
| 20260905052936 | 20 | 248 | 0.0 | 3.2 | 0.00 | 0.00 | 0.00 | 69 | 944.0 |
| 20260905052416 | 20 | 225 | 0.0 | 3.2 | 0.00 | 0.00 | 0.00 | 70 | 944.0 |
| 20260905051928 | 20 | 270 | 0.0 | 3.2 | 0.00 | 0.00 | 0.00 | 70 | 944.0 |
| 20260905051416 | 19 | 270 | 0.0 | 0.0 | 0.00 | 0.00 | 0.00 | 71 | 944.0 |
| 20260905050916 | 19 | 270 | 0.0 | 0.0 | 0.00 | 0.00 | 0.00 | 72 | 944.0 |
| 20260905050415 | 18 | 270 | 0.0 | 0.0 | 0.00 | 0.00 | 0.00 | 73 | 944.0 |
| 20260905045917 | 18 | 270 | 0.0 | 0.0 | 0.00 | 0.00 | 0.00 | 73 | 944.0 |
| 20260905045440 | 17 | 248 | 0.0 | 0.0 | 0.00 | 0.00 | 0.00 | 73 | 944.0 |
| 20260905044917 | 17 | 248 | 0.0 | 0.0 | 0.00 | 0.00 | 0.00 | 74 | 944.0 |
| 20260905044423 | 17 | 248 | 0.0 | 0.0 | 0.00 | 0.00 | 0.00 | 74 | 944.0 |
| 20260905043916 | 16 | 248 | 0.0 | 0.0 | 0.00 | 0.00 | 0.00 | 74 | 944.0 |
| 20260905043415 | 16 | 248 | 0.0 | 0.0 | 0.00 | 0.00 | 0.00 | 74 | 944.0 |
| 20260905042917 | 16 | 248 | 0.0 | 0.0 | 0.00 | 0.00 | 0.00 | 74 | 944.0 |
| 20260905042416 | 16 | 248 | 0.0 | 0.0 | 0.00 | 0.00 | 0.00 | 74 | 944.0 |
| 20260905041935 | 16 | 248 | 0.0 | 0.0 | 0.00 | 0.00 | 0.00 | 74 | 944.0 |
| 20260905041417 | 16 | 248 | 0.0 | 0.0 | 0.00 | 0.00 | 0.00 | 74 | 944.0 |
| 20260905040919 | 16 | 248 | 0.0 | 0.0 | 0.00 | 0.00 | 0.00 | 74 | 944.0 |
| 20260905040416 | 15 | 248 | 0.0 | 0.0 | 0.00 | 0.00 | 0.00 | 74 | 944.0 |
| 20260905035916 | 15 | 248 | 0.0 | 0.0 | 0.00 | 0.00 | 0.00 | 74 | 944.0 |
| 20260905035416 | 15 | 248 | 0.0 | 0.0 | 0.00 | 0.00 | 0.00 | 74 | 944.0 |
| 20260905034915 | 15 | 248 | 0.0 | 0.0 | 0.00 | 0.00 | 0.00 | 74 | 944.0 |
| 20260905034432 | 16 | 248 | 0.0 | 0.0 | 0.00 | 0.00 | 0.00 | 74 | 944.0 |
| 20260905033915 | 16 | 248 | 0.0 | 0.0 | 0.00 | 0.00 | 0.00 | 74 | 943.0 |
| 20260905033424 | 16 | 248 | 0.0 | 0.0 | 0.00 | 0.00 | 0.00 | 74 | 944.0 |
| 20260905032917 | 16 | 248 | 0.0 | 0.0 | 0.00 | 0.00 | 0.00 | 74 | 944.0 |
| 20260905032416 | 16 | 248 | 0.0 | 0.0 | 0.00 | 0.00 | 0.00 | 74 | 944.0 |
| 20260905031941 | 16 | 248 | 0.0 | 0.0 | 0.00 | 0.00 | 0.00 | 74 | 944.0 |
| 20260905031415 | 16 | 248 | 0.0 | 0.0 | 0.00 | 0.00 | 0.00 | 74 | 944.0 |
| 20260905030936 | 16 | 248 | 0.0 | 0.0 | 0.00 | 0.00 | 0.00 | 74 | 944.0 |
| 20260905030416 | 16 | 248 | 0.0 | 0.0 | 0.00 | 0.00 | 0.00 | 74 | 944.0 |
| 20260905025921 | 16 | 248 | 0.0 | 0.0 | 0.00 | 0.00 | 0.00 | 74 | 944.0 |
| 20260905025416 | 16 | 248 | 0.0 | 0.0 | 0.00 | 0.00 | 0.00 | 74 | 943.0 |
| 20260905024915 | 16 | 248 | 0.0 | 0.0 | 0.00 | 0.00 | 0.00 | 74 | 944.0 |
| 20260905024417 | 16 | 248 | 0.0 | 0.0 | 0.00 | 0.00 | 0.00 | 74 | 944.0 |
| 20260905023916 | 16 | 248 | 0.0 | 6.4 | 0.00 | 0.00 | 0.00 | 74 | 944.0 |
| 20260905023434 | 16 | 270 | 0.0 | 6.4 | 0.00 | 0.00 | 0.00 | 74 | 944.0 |
| 20260905022915 | 16 | 248 | 6.4 | 6.4 | 0.00 | 0.00 | 0.00 | 74 | 944.0 |
| 20260905022429 | 16 | 248 | 0.0 | 1.6 | 0.00 | 0.00 | 0.00 | 74 | 944.0 |
| 20260905021915 | 16 | 248 | 0.0 | 1.6 | 0.00 | 0.00 | 0.00 | 74 | 944.0 |
| 20260905021416 | 16 | 248 | 0.0 | 0.0 | 0.00 | 0.00 | 0.00 | 74 | 944.0 |
| 20260905020916 | 16 | 248 | 0.0 | 0.0 | 0.00 | 0.00 | 0.00 | 74 | 944.0 |
| 20260905020415 | 16 | 248 | 0.0 | 0.0 | 0.00 | 0.00 | 0.00 | 74 | 944.0 |
| 20260905015942 | 16 | 248 | 0.0 | 0.0 | 0.00 | 0.00 | 0.00 | 73 | 944.0 |
| 20260905015416 | 16 | 248 | 0.0 | 0.0 | 0.00 | 0.00 | 0.00 | 73 | 944.0 |
| 20260905014926 | 16 | 248 | 0.0 | 0.0 | 0.00 | 0.00 | 0.00 | 73 | 944.0 |
| 20260905014415 | 16 | 248 | 0.0 | 0.0 | 0.00 | 0.00 | 0.00 | 73 | 944.0 |
| 20260905013916 | 16 | 248 | 0.0 | 3.2 | 0.00 | 0.00 | 0.00 | 73 | 944.0 |
| 20260905013416 | 16 | 248 | 0.0 | 3.2 | 0.00 | 0.00 | 0.00 | 73 | 944.0 |
| 20260905012916 | 16 | 248 | 0.0 | 3.2 | 0.00 | 0.00 | 0.00 | 72 | 944.0 |
| 20260905012439 | 16 | 248 | 0.0 | 3.2 | 0.00 | 0.00 | 0.00 | 72 | 944.0 |
| 20260905011917 | 16 | 248 | 0.0 | 3.2 | 0.00 | 0.00 | 0.00 | 71 | 944.0 |
| 20260905011424 | 16 | 248 | 3.2 | 3.2 | 0.00 | 0.00 | 0.00 | 71 | 944.0 |
| 20260905010916 | 16 | 248 | 0.0 | 3.2 | 0.00 | 0.00 | 0.00 | 71 | 944.0 |
| 20260905010417 | 16 | 248 | 3.2 | 3.2 | 0.00 | 0.00 | 0.00 | 70 | 944.0 |
| 20260905005916 | 16 | 248 | 0.0 | 4.8 | 0.00 | 0.00 | 0.00 | 70 | 944.0 |
| 20260905005416 | 16 | 248 | 0.0 | 4.8 | 0.00 | 0.00 | 0.00 | 69 | 944.0 |
| 20260905004938 | 16 | 248 | 0.0 | 4.8 | 0.00 | 24.97 | 0.00 | 69 | 944.0 |
| 20260905004415 | 17 | 248 | 4.8 | 4.8 | 0.00 | 0.00 | 0.00 | 68 | 944.0 |
| 20260905003932 | 17 | 248 | 3.2 | 3.2 | 0.00 | 0.00 | 0.00 | 68 | 944.0 |
| 20260905003416 | 17 | 248 | 0.0 | 0.0 | 0.00 | 0.00 | 0.00 | 68 | 944.0 |
| 20260905002917 | 17 | 292 | 0.0 | 0.0 | 0.00 | 0.00 | 0.00 | 67 | 944.0 |
| 20260905002448 | 17 | 292 | 0.0 | 0.0 | 0.00 | 0.00 | 0.00 | 67 | 944.0 |
| 20260905001915 | 17 | 292 | 0.0 | 0.0 | 0.00 | 0.00 | 0.00 | 67 | 944.0 |
| 20260905001440 | 17 | 292 | 0.0 | 0.0 | 0.00 | 0.00 | 0.00 | 67 | 944.0 |
| 20260905000917 | 17 | 292 | 0.0 | 0.0 | 0.00 | 0.00 | 0.00 | 67 | 944.0 |
| 20260905000424 | 17 | 292 | 0.0 | 0.0 | 0.00 | 0.00 | 0.00 | 67 | 944.0 |
| 20260904235923 | 17 | 292 | 0.0 | 0.0 | 0.00 | 0.00 | 0.00 | 67 | 944.0 |
| 20260904235421 | 17 | 292 | 0.0 | 0.0 | 0.00 | 0.00 | 0.00 | 68 | 944.0 |
| 20260904234916 | 17 | 292 | 0.0 | 0.0 | 0.00 | 0.00 | 0.00 | 67 | 944.0 |
| 20260904234416 | 17 | 292 | 0.0 | 0.0 | 0.00 | 0.00 | 0.00 | 67 | 944.0 |
| 20260904233939 | 17 | 292 | 0.0 | 0.0 | 0.00 | 0.00 | 0.00 | 66 | 944.0 |
| 20260904233438 | 17 | 292 | 0.0 | 0.0 | 0.00 | 0.00 | 0.00 | 66 | 944.0 |
| 20260904232935 | 17 | 292 | 0.0 | 0.0 | 0.00 | 0.00 | 0.00 | 65 | 944.0 |
| 20260904232415 | 17 | 292 | 0.0 | 0.0 | 0.00 | 0.00 | 0.00 | 65 | 944.0 |
| 20260904231920 | 17 | 292 | 0.0 | 0.0 | 0.00 | 0.00 | 0.00 | 65 | 944.0 |
| 20260904231415 | 17 | 292 | 0.0 | 0.0 | 0.00 | 0.00 | 0.00 | 65 | 944.0 |
| 20260904230952 | 17 | 292 | 0.0 | 0.0 | 0.00 | 0.00 | 0.00 | 66 | 944.0 |
| 20260904230416 | 17 | 292 | 0.0 | 0.0 | 0.00 | 0.00 | 0.00 | 66 | 944.0 |
| 20260904225916 | 18 | 0 | 0.0 | 0.0 | 0.00 | 0.00 | 0.00 | 66 | 944.0 |
| 20260904225429 | 17 | 292 | 0.0 | 0.0 | 0.00 | 0.00 | 0.00 | 66 | 944.0 |
| 20260904224916 | 17 | 292 | 0.0 | 0.0 | 0.00 | 0.00 | 0.00 | 66 | 944.0 |
| 20260904224502 | 17 | 292 | 0.0 | 0.0 | 0.00 | 0.00 | 0.00 | 66 | 944.0 |
| 20260904223917 | 17 | 292 | 0.0 | 0.0 | 0.00 | 0.00 | 0.00 | 67 | 945.0 |
| 20260904223416 | 17 | 292 | 0.0 | 0.0 | 0.00 | 0.00 | 0.00 | 66 | 944.0 |
| 20260904222941 | 17 | 292 | 0.0 | 0.0 | 0.00 | 0.00 | 0.00 | 66 | 944.0 |
| 20260904222415 | 17 | 292 | 0.0 | 0.0 | 0.00 | 0.00 | 0.00 | 66 | 944.0 |
| 20260904222014 | 17 | 292 | 0.0 | 0.0 | 0.00 | 0.00 | 0.00 | 66 | 945.0 |
| 20260904221415 | 17 | 292 | 0.0 | 0.0 | 0.00 | 0.00 | 0.00 | 66 | 945.0 |
| 20260904220920 | 17 | 292 | 0.0 | 0.0 | 0.00 | 0.00 | 0.00 | 66 | 945.0 |
| 20260904220415 | 17 | 292 | 0.0 | 0.0 | 0.00 | 0.00 | 0.00 | 66 | 945.0 |
| 20260904215916 | 17 | 292 | 0.0 | 0.0 | 0.00 | 0.00 | 0.00 | 66 | 945.0 |
| 20260904215416 | 18 | 292 | 0.0 | 0.0 | 0.00 | 0.00 | 0.00 | 66 | 945.0 |
| 20260904214916 | 18 | 292 | 0.0 | 0.0 | 0.00 | 0.00 | 0.00 | 65 | 945.0 |
| 20260904214430 | 18 | 292 | 0.0 | 0.0 | 0.00 | 0.00 | 0.00 | 66 | 945.0 |
| 20260904213916 | 18 | 292 | 0.0 | 0.0 | 0.00 | 0.00 | 0.00 | 65 | 945.0 |
| 20260904213415 | 18 | 292 | 0.0 | 0.0 | 0.00 | 0.00 | 0.00 | 65 | 945.0 |
| 20260904212916 | 18 | 292 | 0.0 | 0.0 | 0.00 | 0.00 | 0.00 | 65 | 945.0 |
| 20260904212416 | 18 | 292 | 0.0 | 0.0 | 0.00 | 0.00 | 0.00 | 65 | 945.0 |
| 20260904211942 | 18 | 292 | 0.0 | 0.0 | 0.00 | 0.00 | 0.00 | 65 | 945.0 |
| 20260904211416 | 18 | 292 | 0.0 | 0.0 | 0.00 | 0.00 | 0.00 | 65 | 945.0 |
| 20260904210926 | 18 | 292 | 0.0 | 0.0 | 0.00 | 0.00 | 0.00 | 65 | 945.0 |
| 20260904210416 | 18 | 292 | 0.0 | 0.0 | 0.00 | 0.00 | 0.00 | 64 | 945.0 |
| 20260904205919 | 18 | 292 | 0.0 | 0.0 | 0.00 | 0.00 | 0.00 | 64 | 945.0 |
| 20260904205416 | 18 | 292 | 0.0 | 0.0 | 0.00 | 0.00 | 0.00 | 64 | 945.0 |
| 20260904204915 | 18 | 292 | 0.0 | 0.0 | 0.00 | 0.00 | 0.00 | 63 | 945.0 |
| 20260904204438 | 18 | 292 | 0.0 | 0.0 | 0.00 | 0.00 | 0.00 | 63 | 945.0 |
| 20260904203916 | 18 | 292 | 0.0 | 0.0 | 0.00 | 0.00 | 0.00 | 62 | 945.0 |
| 20260904203431 | 18 | 292 | 0.0 | 0.0 | 0.00 | 0.00 | 0.00 | 62 | 945.0 |
| 20260904202915 | 19 | 292 | 0.0 | 0.0 | 0.00 | 0.00 | 0.00 | 62 | 945.0 |
| 20260904202415 | 19 | 292 | 0.0 | 0.0 | 0.00 | 0.00 | 0.00 | 62 | 945.0 |
| 20260904201916 | 19 | 292 | 0.0 | 1.6 | 0.00 | 0.00 | 0.00 | 62 | 945.0 |
| 20260904201415 | 19 | 292 | 0.0 | 1.6 | 0.00 | 0.00 | 0.00 | 62 | 945.0 |
| 20260904200915 | 19 | 292 | 0.0 | 1.6 | 0.00 | 0.00 | 0.00 | 61 | 945.0 |
| 20260904200415 | 20 | 292 | 0.0 | 0.0 | 0.00 | 0.00 | 0.00 | 61 | 945.0 |
| 20260904195927 | 20 | 292 | 0.0 | 0.0 | 0.00 | 0.00 | 0.00 | 61 | 945.0 |
| 20260904195415 | 20 | 292 | 0.0 | 0.0 | 0.00 | 0.00 | 0.00 | 61 | 945.0 |
| 20260904194922 | 20 | 292 | 0.0 | 0.0 | 0.00 | 0.00 | 0.00 | 61 | 945.0 |
| 20260904194415 | 20 | 292 | 0.0 | 0.0 | 0.00 | 0.00 | 0.00 | 61 | 945.0 |
| 20260904193916 | 20 | 292 | 0.0 | 0.0 | 0.00 | 0.00 | 0.00 | 61 | 945.0 |
| 20260904193439 | 20 | 292 | 0.0 | 0.0 | 0.00 | 0.00 | 0.00 | 60 | 945.0 |
| 20260904192915 | 20 | 292 | 0.0 | 0.0 | 0.00 | 0.00 | 0.00 | 60 | 945.0 |
| 20260904192432 | 20 | 292 | 0.0 | 0.0 | 0.00 | 0.00 | 0.00 | 60 | 945.0 |
| 20260904191916 | 20 | 292 | 0.0 | 0.0 | 0.00 | 0.00 | 0.00 | 60 | 945.0 |
| 20260904191414 | 20 | 292 | 0.0 | 3.2 | 0.00 | 0.00 | 0.00 | 60 | 945.0 |
| 20260904190915 | 20 | 292 | 0.0 | 3.2 | 0.00 | 0.00 | 0.00 | 60 | 945.0 |
| 20260904190415 | 20 | 292 | 3.2 | 3.2 | 0.00 | 0.00 | 0.00 | 60 | 945.0 |
| 20260904185916 | 20 | 292 | 0.0 | 0.0 | 0.00 | 0.00 | 0.00 | 60 | 945.0 |
| 20260904185415 | 20 | 292 | 0.0 | 0.0 | 0.00 | 0.00 | 0.00 | 60 | 945.0 |
| 20260904184929 | 20 | 292 | 0.0 | 0.0 | 0.00 | 0.00 | 0.00 | 60 | 945.0 |
| 20260904184415 | 20 | 292 | 0.0 | 0.0 | 0.00 | 0.00 | 0.00 | 60 | 945.0 |
| 20260904183916 | 20 | 292 | 0.0 | 0.0 | 0.00 | 0.00 | 0.00 | 60 | 945.0 |
| 20260904183415 | 20 | 292 | 0.0 | 0.0 | 0.00 | 0.00 | 0.00 | 60 | 945.0 |
| 20260904182915 | 20 | 292 | 0.0 | 0.0 | 0.00 | 0.00 | 0.00 | 60 | 945.0 |
| 20260904182439 | 20 | 292 | 0.0 | 0.0 | 0.00 | 0.00 | 0.00 | 60 | 945.0 |
| 20260904181915 | 20 | 292 | 0.0 | 0.0 | 0.00 | 0.00 | 0.00 | 60 | 945.0 |
| 20260904181424 | 20 | 292 | 0.0 | 0.0 | 0.00 | 0.00 | 0.00 | 60 | 945.0 |
| 20260904180916 | 20 | 292 | 0.0 | 0.0 | 0.00 | 0.00 | 0.00 | 60 | 945.0 |
| 20260904180417 | 20 | 292 | 0.0 | 0.0 | 0.00 | 0.00 | 0.00 | 60 | 945.0 |
| 20260904175915 | 21 | 292 | 0.0 | 0.0 | 0.00 | 0.00 | 0.00 | 60 | 945.0 |
| 20260904175415 | 21 | 292 | 0.0 | 0.0 | 0.00 | 0.00 | 0.00 | 59 | 945.0 |
| 20260904174935 | 21 | 292 | 0.0 | 0.0 | 0.00 | 0.00 | 0.00 | 59 | 945.0 |
| 20260904174416 | 21 | 292 | 0.0 | 0.0 | 0.00 | 0.00 | 0.00 | 59 | 945.0 |
| 20260904173926 | 21 | 292 | 0.0 | 0.0 | 0.00 | 0.00 | 0.00 | 60 | 945.0 |
| 20260904173414 | 21 | 292 | 0.0 | 0.0 | 0.00 | 0.00 | 0.00 | 59 | 944.0 |
| 20260904172915 | 21 | 292 | 0.0 | 0.0 | 0.00 | 0.00 | 0.00 | 59 | 945.0 |
| 20260904172416 | 21 | 292 | 0.0 | 0.0 | 0.00 | 0.00 | 0.00 | 59 | 945.0 |
| 20260904171915 | 22 | 292 | 0.0 | 0.0 | 0.00 | 0.00 | 0.00 | 59 | 945.0 |
| 20260904171423 | 22 | 292 | 0.0 | 0.0 | 0.00 | 0.00 | 0.00 | 59 | 945.0 |
| 20260904170916 | 22 | 292 | 0.0 | 0.0 | 0.00 | 0.00 | 0.00 | 59 | 945.0 |
| 20260904170415 | 22 | 292 | 0.0 | 0.0 | 0.00 | 0.00 | 0.00 | 59 | 945.0 |
| 20260904165941 | 22 | 292 | 0.0 | 0.0 | 0.00 | 0.00 | 0.00 | 59 | 945.0 |
| 20260904165414 | 22 | 292 | 0.0 | 0.0 | 0.00 | 0.00 | 0.00 | 59 | 945.0 |
| 20260904164937 | 22 | 292 | 0.0 | 0.0 | 0.00 | 0.00 | 0.00 | 59 | 945.0 |
| 20260904164415 | 22 | 292 | 0.0 | 0.0 | 0.00 | 0.00 | 0.00 | 59 | 944.0 |
| 20260904163918 | 22 | 292 | 0.0 | 0.0 | 0.00 | 0.00 | 0.00 | 59 | 945.0 |
| 20260904163416 | 22 | 292 | 0.0 | 0.0 | 0.00 | 0.00 | 0.00 | 59 | 944.0 |
| 20260904162914 | 22 | 292 | 0.0 | 0.0 | 0.00 | 0.00 | 0.00 | 59 | 944.0 |
| 20260904162416 | 22 | 315 | 0.0 | 0.0 | 0.00 | 0.00 | 0.00 | 58 | 945.0 |
| 20260904161914 | 23 | 315 | 0.0 | 0.0 | 0.00 | 0.00 | 0.00 | 58 | 945.0 |
| 20260904161429 | 23 | 315 | 0.0 | 0.0 | 0.00 | 0.00 | 0.00 | 58 | 945.0 |
| 20260904160915 | 23 | 315 | 0.0 | 0.0 | 0.00 | 0.00 | 0.00 | 58 | 945.0 |
| 20260904160424 | 23 | 338 | 0.0 | 0.0 | 0.00 | 0.00 | 0.00 | 58 | 945.0 |
| 20260904155916 | 23 | 338 | 0.0 | 0.0 | 0.00 | 0.00 | 0.00 | 57 | 944.0 |
| 20260904155415 | 23 | 338 | 0.0 | 0.0 | 0.00 | 0.00 | 0.00 | 57 | 944.0 |
| 20260904154942 | 23 | 338 | 0.0 | 0.0 | 0.00 | 0.00 | 0.00 | 57 | 945.0 |
| 20260904154414 | 23 | 338 | 0.0 | 0.0 | 0.00 | 0.00 | 0.00 | 57 | 945.0 |
| 20260904153937 | 23 | 338 | 0.0 | 0.0 | 0.00 | 0.00 | 0.00 | 57 | 945.0 |
| 20260904153416 | 23 | 338 | 0.0 | 0.0 | 0.00 | 0.00 | 0.00 | 56 | 945.0 |
| 20260904152922 | 23 | 338 | 0.0 | 0.0 | 0.00 | 0.00 | 0.00 | 56 | 945.0 |
| 20260904152415 | 23 | 338 | 0.0 | 0.0 | 0.00 | 0.00 | 0.00 | 56 | 945.0 |
| 20260904151915 | 23 | 338 | 0.0 | 0.0 | 0.00 | 0.00 | 0.00 | 56 | 945.0 |
| 20260904151415 | 23 | 338 | 0.0 | 0.0 | 0.00 | 0.00 | 0.00 | 56 | 945.0 |
| 20260904150915 | 23 | 338 | 0.0 | 0.0 | 0.00 | 0.00 | 0.00 | 56 | 945.0 |
| 20260904150435 | 23 | 338 | 0.0 | 0.0 | 0.00 | 0.00 | 0.00 | 55 | 945.0 |
| 20260904145914 | 23 | 338 | 0.0 | 0.0 | 0.00 | 0.00 | 0.00 | 55 | 945.0 |
| 20260904145418 | 23 | 338 | 0.0 | 0.0 | 0.00 | 0.00 | 0.00 | 55 | 945.0 |
| 20260904144914 | 23 | 338 | 0.0 | 0.0 | 0.00 | 0.00 | 0.00 | 55 | 945.0 |
| 20260904144416 | 23 | 338 | 0.0 | 0.0 | 0.00 | 0.00 | 0.00 | 55 | 945.0 |
| 20260904143914 | 24 | 338 | 0.0 | 0.0 | 0.00 | 0.00 | 0.00 | 55 | 945.0 |
| 20260904143415 | 24 | 338 | 0.0 | 0.0 | 0.00 | 0.00 | 0.00 | 54 | 945.0 |
| 20260904142929 | 25 | 338 | 0.0 | 0.0 | 0.00 | 0.00 | 0.00 | 54 | 945.0 |
| 20260904142415 | 25 | 0 | 0.0 | 0.0 | 0.00 | 0.00 | 0.00 | 54 | 945.0 |
| 20260904141923 | 25 | 338 | 0.0 | 0.0 | 0.00 | 0.00 | 0.00 | 54 | 945.0 |
| 20260904141414 | 25 | 338 | 0.0 | 0.0 | 0.00 | 0.00 | 0.00 | 53 | 945.0 |
| 20260904140915 | 25 | 338 | 0.0 | 0.0 | 0.00 | 0.00 | 0.00 | 53 | 945.0 |
| 20260904140443 | 25 | 315 | 0.0 | 0.0 | 0.00 | 0.00 | 0.00 | 53 | 945.0 |
| 20260904135915 | 25 | 315 | 0.0 | 0.0 | 0.00 | 0.00 | 0.00 | 52 | 945.0 |
| 20260904135437 | 25 | 315 | 0.0 | 0.0 | 0.00 | 0.00 | 0.00 | 53 | 945.0 |
| 20260904134914 | 25 | 315 | 0.0 | 0.0 | 0.00 | 0.00 | 0.00 | 52 | 945.0 |
| 20260904134420 | 25 | 315 | 0.0 | 0.0 | 0.00 | 0.00 | 0.00 | 53 | 945.0 |
| 20260904133920 | 26 | 315 | 0.0 | 0.0 | 0.00 | 0.00 | 0.00 | 52 | 945.0 |
| 20260904133416 | 26 | 315 | 0.0 | 0.0 | 0.00 | 0.00 | 0.00 | 52 | 945.0 |
| 20260904132915 | 26 | 315 | 0.0 | 0.0 | 0.00 | 0.00 | 0.00 | 52 | 945.0 |
| 20260904132415 | 26 | 315 | 0.0 | 0.0 | 0.00 | 0.00 | 0.00 | 51 | 945.0 |
| 20260904131935 | 26 | 315 | 0.0 | 0.0 | 0.00 | 0.00 | 0.00 | 51 | 945.0 |
| 20260904131434 | 26 | 315 | 0.0 | 0.0 | 0.00 | 0.00 | 0.00 | 51 | 945.0 |
| 20260904130929 | 26 | 315 | 0.0 | 0.0 | 0.00 | 0.00 | 0.00 | 51 | 945.0 |
| 20260904130414 | 26 | 315 | 0.0 | 0.0 | 0.00 | 0.00 | 0.00 | 51 | 945.0 |
| 20260904125915 | 26 | 315 | 0.0 | 0.0 | 0.00 | 0.00 | 0.00 | 50 | 945.0 |
| 20260904125416 | 27 | 315 | 0.0 | 0.0 | 0.00 | 0.00 | 0.00 | 50 | 945.0 |
| 20260904124948 | 27 | 270 | 0.0 | 0.0 | 0.00 | 0.00 | 0.00 | 51 | 945.0 |
| 20260904124415 | 26 | 270 | 0.0 | 3.2 | 0.00 | 0.00 | 0.00 | 52 | 945.0 |
| 20260904123914 | 26 | 270 | 0.0 | 3.2 | 0.00 | 0.00 | 0.00 | 53 | 945.0 |
| 20260904123430 | 26 | 292 | 0.0 | 3.2 | 0.00 | 0.00 | 0.00 | 53 | 945.0 |
| 20260904122914 | 25 | 270 | 1.6 | 1.6 | 0.00 | 24.97 | 0.00 | 54 | 945.0 |
| 20260904122503 | 25 | 315 | 0.0 | 0.0 | 0.00 | 0.00 | 0.00 | 53 | 945.0 |
| 20260904121915 | 25 | 315 | 0.0 | 0.0 | 0.00 | 0.00 | 0.00 | 53 | 945.0 |
| 20260904121414 | 25 | 315 | 0.0 | 3.2 | 0.00 | 0.00 | 0.00 | 53 | 945.0 |
| 20260904120914 | 25 | 270 | 0.0 | 6.4 | 0.00 | 0.00 | 0.00 | 53 | 945.0 |
| 20260904120414 | 25 | 270 | 0.0 | 6.4 | 0.00 | 0.00 | 0.00 | 52 | 945.0 |
| 20260904120015 | 25 | 270 | 6.4 | 6.4 | 0.00 | 0.00 | 0.00 | 52 | 945.0 |
| 20260904115415 | 25 | 0 | 0.0 | 0.0 | 0.00 | 0.00 | 0.00 | 51 | 946.0 |
| 20260904114921 | 25 | 0 | 0.0 | 0.0 | 0.00 | 0.00 | 0.00 | 51 | 946.0 |
| 20260904114415 | 26 | 0 | 0.0 | 0.0 | 0.00 | 0.00 | 0.00 | 51 | 946.0 |
| 20260904113914 | 26 | 0 | 0.0 | 0.0 | 0.00 | 0.00 | 0.00 | 50 | 946.0 |
| 20260904113415 | 26 | 0 | 0.0 | 0.0 | 0.00 | 0.00 | 0.00 | 50 | 946.0 |
| 20260904112914 | 26 | 0 | 0.0 | 0.0 | 0.00 | 0.00 | 0.00 | 49 | 946.0 |
| 20260904112434 | 26 | 0 | 0.0 | 0.0 | 0.00 | 0.00 | 0.00 | 49 | 946.0 |
| 20260904111914 | 27 | 0 | 0.0 | 0.0 | 0.00 | 0.00 | 0.00 | 48 | 946.0 |
| 20260904111420 | 27 | 0 | 0.0 | 0.0 | 0.00 | 0.00 | 0.00 | 48 | 946.0 |
| 20260904110915 | 28 | 0 | 0.0 | 0.0 | 0.00 | 0.00 | 0.00 | 47 | 946.0 |
| 20260904110416 | 28 | 0 | 0.0 | 0.0 | 0.00 | 0.00 | 0.00 | 46 | 946.0 |
| 20260904105915 | 30 | 0 | 0.0 | 0.0 | 0.00 | 0.00 | 0.00 | 46 | 946.0 |
| 20260904105415 | 30 | 0 | 0.0 | 0.0 | 0.00 | 0.00 | 0.00 | 46 | 946.0 |
| 20260904104937 | 30 | 0 | 0.0 | 0.0 | 0.00 | 0.00 | 0.00 | 46 | 946.0 |
| 20260904104415 | 30 | 0 | 0.0 | 0.0 | 0.00 | 0.00 | 0.00 | 47 | 946.0 |
| 20260904103932 | 30 | 0 | 0.0 | 0.0 | 0.00 | 0.00 | 0.00 | 47 | 946.0 |
| 20260904103415 | 29 | 0 | 0.0 | 0.0 | 0.00 | 0.00 | 0.00 | 47 | 946.0 |
| 20260904102916 | 29 | 0 | 0.0 | 0.0 | 0.00 | 0.00 | 0.00 | 47 | 946.0 |
| 20260904102415 | 29 | 0 | 0.0 | 0.0 | 0.00 | 0.00 | 0.00 | 48 | 946.0 |
| 20260904101914 | 29 | 338 | 0.0 | 0.0 | 0.00 | 0.00 | 0.00 | 49 | 946.0 |
| 20260904101414 | 28 | 338 | 0.0 | 0.0 | 0.00 | 0.00 | 0.00 | 49 | 946.0 |
| 20260904100913 | 28 | 338 | 0.0 | 0.0 | 0.00 | 0.00 | 0.00 | 49 | 946.0 |
| 20260904100429 | 28 | 338 | 0.0 | 0.0 | 0.00 | 0.00 | 0.00 | 49 | 946.0 |